| time (UTC) | temp F | wind direction | speed MPH | gust MPH | rain 1hr in | rain 24hr in | rain mn in | humidity % | barometer mb |
| 20260503203533 | 73 | 103 | 1.0 | 7.0 | 0.00 | 0.00 | 0.00 | 40 | 1013.1 |
| 20260503203032 | 74 | 132 | 3.0 | 7.0 | 0.00 | 0.00 | 0.00 | 39 | 1013.3 |
| 20260503202524 | 74 | 131 | 1.0 | 6.0 | 0.00 | 0.00 | 0.00 | 40 | 1013.4 |
| 20260503202034 | 74 | 108 | 2.0 | 6.0 | 0.00 | 0.00 | 0.00 | 40 | 1013.6 |
| 20260503201528 | 74 | 184 | 0.0 | 4.0 | 0.00 | 0.00 | 0.00 | 41 | 1013.7 |
| 20260503201023 | 73 | 140 | 0.0 | 4.0 | 0.00 | 0.00 | 0.00 | 41 | 1013.8 |
| 20260503200534 | 73 | 148 | 1.0 | 5.0 | 0.00 | 0.00 | 0.00 | 40 | 1014.0 |
| 20260503200026 | 73 | 131 | 0.0 | 5.0 | 0.00 | 0.00 | 0.00 | 41 | 1014.0 |
| 20260503195522 | 73 | 110 | 1.0 | 5.0 | 0.00 | 0.00 | 0.00 | 40 | 1014.1 |
| 20260503195033 | 73 | 166 | 0.0 | 4.0 | 0.00 | 0.00 | 0.00 | 41 | 1014.2 |
| 20260503194529 | 73 | 133 | 0.0 | 5.0 | 0.00 | 0.00 | 0.00 | 43 | 1014.3 |
| 20260503194024 | 73 | 97 | 1.0 | 5.0 | 0.00 | 0.00 | 0.00 | 41 | 1014.4 |
| 20260503193535 | 73 | 194 | 1.0 | 5.0 | 0.00 | 0.00 | 0.00 | 41 | 1014.4 |
| 20260503193034 | 73 | 120 | 2.0 | 6.0 | 0.00 | 0.00 | 0.00 | 40 | 1014.5 |
| 20260503192525 | 73 | 210 | 0.0 | 5.0 | 0.00 | 0.00 | 0.00 | 42 | 1014.6 |
| 20260503192035 | 73 | 227 | 1.0 | 5.0 | 0.00 | 0.00 | 0.00 | 43 | 1014.6 |
| 20260503191530 | 73 | 134 | 0.0 | 4.0 | 0.00 | 0.00 | 0.00 | 43 | 1014.7 |
| 20260503191026 | 73 | 194 | 0.0 | 4.0 | 0.00 | 0.00 | 0.00 | 43 | 1014.8 |
| 20260503190520 | 72 | 217 | 0.0 | 6.0 | 0.00 | 0.00 | 0.00 | 44 | 1014.8 |
| 20260503190033 | 72 | 158 | 0.0 | 6.0 | 0.00 | 0.00 | 0.00 | 43 | 1015.0 |
| 20260503185527 | 72 | 165 | 0.0 | 4.0 | 0.00 | 0.00 | 0.00 | 43 | 1015.0 |
| 20260503185023 | 71 | 113 | 0.0 | 4.0 | 0.00 | 0.00 | 0.00 | 43 | 1015.0 |
| 20260503184533 | 72 | 123 | 0.0 | 4.0 | 0.00 | 0.00 | 0.00 | 41 | 1015.1 |
| 20260503184028 | 72 | 117 | 1.0 | 5.0 | 0.00 | 0.00 | 0.00 | 40 | 1014.9 |
| 20260503183538 | 72 | 111 | 1.0 | 5.0 | 0.00 | 0.00 | 0.00 | 42 | 1015.0 |
| 20260503183050 | 72 | 141 | 0.0 | 5.0 | 0.00 | 0.00 | 0.00 | 43 | 1015.0 |
| 20260503182531 | 72 | 204 | 0.0 | 6.0 | 0.00 | 0.00 | 0.00 | 44 | 1015.1 |
| 20260503182029 | 72 | 123 | 1.0 | 6.0 | 0.00 | 0.00 | 0.00 | 43 | 1015.4 |
| 20260503181535 | 72 | 116 | 1.0 | 4.0 | 0.00 | 0.00 | 0.00 | 42 | 1015.4 |
| 20260503181029 | 72 | 166 | 0.0 | 4.0 | 0.00 | 0.00 | 0.00 | 43 | 1015.5 |
| 20260503180535 | 71 | 197 | 0.0 | 7.0 | 0.00 | 0.00 | 0.00 | 45 | 1015.9 |
| 20260503180035 | 71 | 84 | 1.0 | 7.0 | 0.00 | 0.00 | 0.00 | 44 | 1016.1 |
| 20260503175530 | 71 | 145 | 0.0 | 6.0 | 0.00 | 0.00 | 0.00 | 44 | 1016.2 |
| 20260503175029 | 71 | 169 | 1.0 | 6.0 | 0.00 | 0.00 | 0.00 | 45 | 1016.0 |
| 20260503174535 | 70 | 143 | 0.0 | 3.0 | 0.00 | 0.00 | 0.00 | 48 | 1016.0 |
| 20260503174032 | 70 | 98 | 0.0 | 3.0 | 0.00 | 0.00 | 0.00 | 49 | 1016.0 |
| 20260503173527 | 70 | 131 | 0.0 | 2.0 | 0.00 | 0.00 | 0.00 | 50 | 1016.2 |
| 20260503173021 | 69 | 104 | 0.0 | 3.0 | 0.00 | 0.00 | 0.00 | 50 | 1016.4 |
| 20260503172536 | 69 | 304 | 0.0 | 3.0 | 0.00 | 0.00 | 0.00 | 49 | 1016.4 |
| 20260503172028 | 69 | 231 | 0.0 | 1.0 | 0.00 | 0.00 | 0.00 | 52 | 1016.6 |
| 20260503171524 | 69 | 195 | 0.0 | 3.0 | 0.00 | 0.00 | 0.00 | 54 | 1016.7 |
| 20260503171035 | 68 | 140 | 0.0 | 3.0 | 0.00 | 0.00 | 0.00 | 52 | 1016.7 |
| 20260503170527 | 68 | 233 | 0.0 | 1.0 | 0.00 | 0.00 | 0.00 | 51 | 1016.7 |
| 20260503150524 | 57 | 34 | 1.0 | 5.0 | 0.00 | 0.00 | 0.00 | 73 | 1017.4 |
| 20260503131030 | 51 | 356 | 0.0 | 2.0 | 0.00 | 0.00 | 0.00 | 83 | 1017.2 |
| 20260503130526 | 51 | 13 | 0.0 | 3.0 | 0.00 | 0.00 | 0.00 | 82 | 1017.1 |
| 20260503110521 | 51 | 8 | 0.0 | 1.0 | 0.00 | 0.00 | 0.00 | 83 | 1016.7 |
| 20260503081534 | 53 | 32 | 0.0 | 0.0 | 0.00 | 0.11 | 0.00 | 79 | 1017.4 |
| 20260503081024 | 54 | 32 | 0.0 | 1.0 | 0.00 | 0.11 | 0.00 | 79 | 1017.4 |
| 20260503080534 | 54 | 32 | 0.0 | 2.0 | 0.00 | 0.11 | 0.00 | 78 | 1017.4 |
| 20260503072524 | 54 | 18 | 0.0 | 3.0 | 0.00 | 0.11 | 0.00 | 78 | 1017.8 |
| 20260503072037 | 54 | 41 | 0.0 | 1.0 | 0.00 | 0.11 | 0.00 | 78 | 1017.8 |
| 20260503071530 | 54 | 20 | 0.0 | 1.0 | 0.00 | 0.11 | 0.00 | 78 | 1018.0 |
| 20260503071026 | 54 | 20 | 0.0 | 0.0 | 0.00 | 0.11 | 0.00 | 77 | 1018.1 |
| 20260503070523 | 54 | 20 | 0.0 | 0.0 | 0.00 | 0.11 | 0.00 | 77 | 1018.1 |
| 20260503055022 | 57 | 20 | 0.0 | 2.0 | 0.00 | 0.11 | 0.11 | 71 | 1017.2 |
| 20260503054543 | 57 | 20 | 0.0 | 2.0 | 0.00 | 0.11 | 0.11 | 71 | 1017.2 |
| 20260503054031 | 57 | 41 | 0.0 | 1.0 | 0.00 | 0.11 | 0.11 | 70 | 1017.2 |
| 20260503053525 | 57 | 41 | 0.0 | 2.0 | 0.00 | 0.11 | 0.11 | 70 | 1017.1 |
| 20260503053034 | 57 | 8 | 0.0 | 2.0 | 0.00 | 0.11 | 0.11 | 69 | 1017.1 |
| 20260503052532 | 57 | 19 | 0.0 | 2.0 | 0.00 | 0.11 | 0.11 | 69 | 1017.1 |
| 20260503052026 | 57 | 27 | 0.0 | 2.0 | 0.00 | 0.11 | 0.11 | 69 | 1017.2 |
| 20260503051522 | 58 | 5 | 0.0 | 1.0 | 0.00 | 0.11 | 0.11 | 69 | 1017.2 |
| 20260503051033 | 58 | 46 | 0.0 | 2.0 | 0.00 | 0.11 | 0.11 | 68 | 1017.2 |
| 20260503050528 | 58 | 348 | 0.0 | 2.0 | 0.00 | 0.11 | 0.11 | 68 | 1017.3 |
| 20260503050040 | 58 | 42 | 0.0 | 1.0 | 0.00 | 0.11 | 0.11 | 69 | 1017.2 |
| 20260503045536 | 58 | 32 | 0.0 | 1.0 | 0.00 | 0.11 | 0.11 | 69 | 1017.2 |
| 20260503045026 | 58 | 34 | 0.0 | 2.0 | 0.00 | 0.11 | 0.11 | 69 | 1017.2 |
| 20260503044522 | 58 | 337 | 0.0 | 2.0 | 0.00 | 0.11 | 0.11 | 69 | 1017.1 |
| 20260503044034 | 58 | 24 | 0.0 | 2.0 | 0.00 | 0.11 | 0.11 | 69 | 1017.1 |
| 20260503043528 | 58 | 351 | 0.0 | 4.0 | 0.00 | 0.11 | 0.11 | 70 | 1017.0 |
| 20260503043022 | 58 | 349 | 0.0 | 4.0 | 0.00 | 0.11 | 0.11 | 71 | 1017.0 |
| 20260503042533 | 58 | 19 | 0.0 | 2.0 | 0.00 | 0.11 | 0.11 | 72 | 1017.1 |
| 20260503042028 | 58 | 11 | 0.0 | 2.0 | 0.00 | 0.11 | 0.11 | 73 | 1017.0 |
| 20260503041545 | 57 | 32 | 0.0 | 2.0 | 0.00 | 0.11 | 0.11 | 73 | 1017.1 |
| 20260503041030 | 57 | 39 | 0.0 | 0.0 | 0.00 | 0.11 | 0.11 | 74 | 1017.1 |
| 20260503040537 | 57 | 38 | 0.0 | 0.0 | 0.00 | 0.11 | 0.11 | 74 | 1017.1 |
| 20260503040036 | 57 | 38 | 0.0 | 0.0 | 0.00 | 0.11 | 0.11 | 74 | 1017.0 |
| 20260503035525 | 57 | 38 | 0.0 | 1.0 | 0.00 | 0.11 | 0.11 | 74 | 1017.1 |
| 20260503035035 | 57 | 38 | 0.0 | 1.0 | 0.00 | 0.11 | 0.11 | 75 | 1017.1 |
| 20260503034536 | 56 | 39 | 0.0 | 1.0 | 0.00 | 0.11 | 0.11 | 77 | 1017.1 |
| 20260503034023 | 56 | 39 | 0.0 | 0.0 | 0.00 | 0.11 | 0.11 | 76 | 1017.0 |
| 20260503033538 | 56 | 39 | 0.0 | 0.0 | 0.00 | 0.11 | 0.11 | 76 | 1017.0 |
| 20260503033030 | 56 | 39 | 0.0 | 0.0 | 0.00 | 0.11 | 0.11 | 73 | 1017.0 |
| 20260503032539 | 57 | 39 | 0.0 | 0.0 | 0.00 | 0.11 | 0.11 | 73 | 1016.9 |
| 20260503032031 | 57 | 38 | 0.0 | 0.0 | 0.00 | 0.11 | 0.11 | 72 | 1016.8 |
| 20260503031537 | 57 | 38 | 0.0 | 0.0 | 0.00 | 0.11 | 0.11 | 72 | 1016.8 |
| 20260503031037 | 57 | 39 | 0.0 | 0.0 | 0.00 | 0.11 | 0.11 | 72 | 1016.8 |
| 20260503030531 | 57 | 39 | 0.0 | 0.0 | 0.00 | 0.11 | 0.11 | 71 | 1016.7 |
| 20260503030028 | 58 | 39 | 0.0 | 0.0 | 0.00 | 0.11 | 0.11 | 70 | 1016.7 |
| 20260503025536 | 58 | 38 | 0.0 | 0.0 | 0.00 | 0.11 | 0.11 | 69 | 1016.7 |
| 20260503025032 | 58 | 38 | 0.0 | 0.0 | 0.00 | 0.11 | 0.11 | 68 | 1016.6 |
| 20260503024528 | 58 | 38 | 0.0 | 0.0 | 0.00 | 0.11 | 0.11 | 67 | 1016.6 |
| 20260503024023 | 58 | 39 | 0.0 | 0.0 | 0.00 | 0.11 | 0.11 | 66 | 1016.3 |
| 20260503023532 | 58 | 38 | 0.0 | 0.0 | 0.00 | 0.11 | 0.11 | 66 | 1016.2 |
| 20260503023026 | 59 | 38 | 0.0 | 0.0 | 0.00 | 0.11 | 0.11 | 66 | 1016.3 |
| 20260503022521 | 59 | 39 | 0.0 | 0.0 | 0.00 | 0.11 | 0.11 | 66 | 1016.1 |
| 20260503022032 | 59 | 39 | 0.0 | 0.0 | 0.00 | 0.11 | 0.11 | 65 | 1016.1 |
| 20260503021524 | 60 | 38 | 0.0 | 0.0 | 0.00 | 0.11 | 0.11 | 65 | 1016.1 |
| 20260503021035 | 60 | 39 | 0.0 | 0.0 | 0.00 | 0.11 | 0.11 | 64 | 1016.1 |
| 20260503020529 | 60 | 39 | 0.0 | 0.0 | 0.00 | 0.11 | 0.11 | 63 | 1016.1 |
| 20260503020024 | 61 | 38 | 0.0 | 0.0 | 0.00 | 0.11 | 0.11 | 61 | 1016.1 |
| 20260503015534 | 61 | 39 | 0.0 | 0.0 | 0.00 | 0.28 | 0.11 | 61 | 1016.2 |
| 20260503015027 | 62 | 39 | 0.0 | 0.0 | 0.00 | 0.28 | 0.11 | 60 | 1016.1 |
| 20260503014537 | 62 | 39 | 0.0 | 0.0 | 0.00 | 0.28 | 0.11 | 57 | 1016.1 |
| 20260503014032 | 63 | 39 | 0.0 | 0.0 | 0.00 | 0.28 | 0.11 | 56 | 1016.1 |
| 20260503013528 | 64 | 38 | 0.0 | 0.0 | 0.00 | 0.28 | 0.11 | 56 | 1016.1 |
| 20260503013040 | 64 | 39 | 0.0 | 0.0 | 0.00 | 0.28 | 0.11 | 56 | 1016.0 |
| 20260503012540 | 65 | 38 | 0.0 | 1.0 | 0.00 | 0.28 | 0.11 | 54 | 1016.0 |
| 20260503012027 | 65 | 34 | 0.0 | 1.0 | 0.00 | 0.28 | 0.11 | 54 | 1015.8 |
| 20260503011542 | 65 | 28 | 0.0 | 2.0 | 0.00 | 0.28 | 0.11 | 52 | 1015.8 |
| 20260503011031 | 65 | 43 | 0.0 | 2.0 | 0.00 | 0.28 | 0.11 | 54 | 1015.9 |
| 20260503010527 | 66 | 12 | 0.0 | 1.0 | 0.00 | 0.28 | 0.11 | 52 | 1015.7 |
| 20260503010036 | 66 | 15 | 0.0 | 0.0 | 0.00 | 0.28 | 0.11 | 50 | 1015.7 |
| 20260503005531 | 66 | 13 | 0.0 | 0.0 | 0.00 | 0.28 | 0.11 | 51 | 1015.7 |
| 20260503005028 | 67 | 13 | 0.0 | 1.0 | 0.00 | 0.28 | 0.11 | 49 | 1015.6 |
| 20260503004540 | 67 | 13 | 0.0 | 1.0 | 0.00 | 0.28 | 0.11 | 46 | 1015.7 |
| 20260503004030 | 68 | 51 | 0.0 | 1.0 | 0.00 | 0.28 | 0.11 | 45 | 1015.8 |
| 20260503003526 | 68 | 53 | 0.0 | 5.0 | 0.00 | 0.28 | 0.11 | 44 | 1015.8 |
| 20260503003037 | 69 | 42 | 2.0 | 5.0 | 0.00 | 0.28 | 0.11 | 42 | 1015.8 |
| 20260503002530 | 70 | 285 | 0.0 | 2.0 | 0.00 | 0.28 | 0.11 | 41 | 1015.8 |
| 20260503002029 | 70 | 250 | 0.0 | 2.0 | 0.00 | 0.28 | 0.11 | 41 | 1015.8 |
| 20260503001538 | 70 | 100 | 0.0 | 3.0 | 0.00 | 0.28 | 0.11 | 41 | 1015.8 |
| 20260503001031 | 70 | 34 | 0.0 | 2.0 | 0.00 | 0.28 | 0.11 | 41 | 1015.7 |
| 20260503000529 | 70 | 356 | 0.0 | 4.0 | 0.00 | 0.28 | 0.11 | 42 | 1015.6 |
| 20260503000034 | 71 | 5 | 0.0 | 4.0 | 0.00 | 0.28 | 0.11 | 39 | 1015.6 |
| 20260502235532 | 72 | 247 | 0.0 | 1.0 | 0.00 | 0.28 | 0.11 | 39 | 1015.7 |
| 20260502235026 | 71 | 249 | 0.0 | 1.0 | 0.00 | 0.28 | 0.11 | 42 | 1015.7 |
| 20260502234535 | 71 | 248 | 0.0 | 3.0 | 0.00 | 0.28 | 0.11 | 42 | 1015.7 |
| 20260502234045 | 70 | 266 | 0.0 | 3.0 | 0.00 | 0.28 | 0.11 | 42 | 1015.7 |
| 20260502233526 | 71 | 120 | 1.0 | 3.0 | 0.00 | 0.28 | 0.11 | 41 | 1015.6 |
| 20260502233043 | 70 | 96 | 0.0 | 4.0 | 0.00 | 0.28 | 0.11 | 42 | 1015.6 |
| 20260502232531 | 70 | 105 | 0.0 | 4.0 | 0.00 | 0.28 | 0.11 | 42 | 1015.6 |
| 20260502232027 | 71 | 128 | 0.0 | 5.0 | 0.00 | 0.28 | 0.11 | 43 | 1015.7 |
| 20260502231558 | 71 | 113 | 1.0 | 6.0 | 0.00 | 0.28 | 0.11 | 42 | 1015.6 |
| 20260502231031 | 70 | 17 | 0.0 | 3.0 | 0.00 | 0.28 | 0.11 | 42 | 1015.7 |
| 20260502230525 | 70 | 100 | 0.0 | 4.0 | 0.00 | 0.28 | 0.11 | 44 | 1015.8 |
| 20260502230037 | 70 | 204 | 0.0 | 5.0 | 0.00 | 0.28 | 0.11 | 44 | 1015.8 |
| 20260502225532 | 70 | 128 | 1.0 | 5.0 | 0.00 | 0.28 | 0.11 | 43 | 1015.7 |
| 20260502225024 | 70 | 134 | 0.0 | 4.0 | 0.00 | 0.28 | 0.11 | 43 | 1015.7 |
| 20260502224536 | 70 | 110 | 1.0 | 4.0 | 0.00 | 0.28 | 0.11 | 44 | 1015.8 |
| 20260502224028 | 70 | 154 | 0.0 | 7.0 | 0.00 | 0.28 | 0.11 | 44 | 1015.9 |
| 20260502223536 | 69 | 187 | 1.0 | 7.0 | 0.00 | 0.28 | 0.11 | 45 | 1015.9 |
| 20260502223038 | 69 | 113 | 0.0 | 5.0 | 0.00 | 0.28 | 0.11 | 43 | 1015.9 |
| 20260502222533 | 69 | 113 | 2.0 | 6.0 | 0.00 | 0.28 | 0.11 | 44 | 1016.0 |
| 20260502222025 | 69 | 215 | 1.0 | 6.0 | 0.00 | 0.28 | 0.11 | 46 | 1016.0 |
| 20260502221536 | 69 | 110 | 1.0 | 5.0 | 0.00 | 0.28 | 0.11 | 47 | 1016.0 |
| 20260502221030 | 69 | 115 | 0.0 | 5.0 | 0.00 | 0.28 | 0.11 | 47 | 1016.1 |
| 20260502220526 | 68 | 204 | 0.0 | 6.0 | 0.00 | 0.28 | 0.11 | 49 | 1016.2 |
| 20260502220039 | 68 | 98 | 2.0 | 6.0 | 0.00 | 0.28 | 0.11 | 46 | 1016.3 |
| 20260502215530 | 69 | 248 | 1.0 | 6.0 | 0.00 | 0.28 | 0.11 | 46 | 1016.5 |
| 20260502215040 | 68 | 159 | 0.0 | 6.0 | 0.00 | 0.28 | 0.11 | 48 | 1016.6 |
| 20260502214532 | 68 | 106 | 3.0 | 8.0 | 0.00 | 0.28 | 0.11 | 47 | 1016.6 |
| 20260502214037 | 69 | 108 | 1.0 | 8.0 | 0.00 | 0.28 | 0.11 | 49 | 1016.6 |
| 20260502213530 | 68 | 101 | 0.0 | 3.0 | 0.00 | 0.28 | 0.11 | 50 | 1016.8 |
| 20260502213025 | 67 | 154 | 0.0 | 5.0 | 0.00 | 0.28 | 0.11 | 53 | 1017.0 |
| 20260502212536 | 66 | 270 | 0.0 | 5.0 | 0.00 | 0.28 | 0.11 | 52 | 1017.0 |
| 20260502212030 | 67 | 111 | 0.0 | 5.0 | 0.00 | 0.28 | 0.11 | 50 | 1017.2 |
| 20260502211537 | 67 | 148 | 0.0 | 3.0 | 0.00 | 0.28 | 0.11 | 52 | 1017.1 |
| 20260502211034 | 67 | 120 | 0.0 | 3.0 | 0.00 | 0.28 | 0.11 | 50 | 1017.3 |
| 20260502210529 | 68 | 236 | 1.0 | 3.0 | 0.00 | 0.28 | 0.11 | 49 | 1017.4 |
| 20260502210025 | 68 | 222 | 0.0 | 5.0 | 0.00 | 0.28 | 0.11 | 50 | 1017.5 |
| 20260502205533 | 67 | 210 | 0.0 | 1.0 | 0.00 | 0.28 | 0.11 | 52 | 1017.6 |
| 20260502205043 | 66 | 110 | 0.0 | 5.0 | 0.00 | 0.28 | 0.11 | 52 | 1017.6 |
| 20260502204526 | 66 | 118 | 3.0 | 5.0 | 0.00 | 0.28 | 0.11 | 51 | 1017.7 |
| 20260502204039 | 67 | 118 | 0.0 | 4.0 | 0.00 | 0.28 | 0.11 | 50 | 1017.8 |